Regional Weather Roundup
Issued by NWS

Home | Current Version | Previous Version | Graphics & Text | Print | Product List | Glossary On
Versions: 1 2 3 4 5 6 7 8 9 10 11 12 13 14 15 16 17 18 19 20 21 22 23 24 25 26 27 28 29 30 31 32 33 34 35 36 37 38 39 40 41 42 43 44 45 46 47 48 49 50
000
ASUS43 KFSD 252210
RWRSD

WEATHER ROUNDUP FOR SOUTH DAKOTA
NATIONAL WEATHER SERVICE SIOUX FALLS SD
400 PM CST TUE NOV 25 2014

NOTE: "FAIR" INDICATES FEW OR NO CLOUDS BELOW 12,000 FEET WITH NO
SIGNIFICANT WEATHER AND/OR OBSTRUCTIONS TO VISIBILITY.


SDZ001>005-009-010-012>017-252300-
NORTHWEST AND NORTH CENTRAL SOUTH DAKOTA

CITY           SKY/WX    TMP DP  RH WIND       PRES   REMARKS
BUFFALO          N/A     38  30  73 W25G35    29.69R
FAITH            N/A     37  31  78 NW17G24   29.74R
MOBRIDGE       LGT SNOW  33  31  92 S12       29.71S FOG     WCI  24
$$

SDZ012>016-024>037-041>051-057-063-072>074-252300-
SOUTHWEST AND SOUTH CENTRAL SOUTH DAKOTA

CITY           SKY/WX    TMP DP  RH WIND       PRES   REMARKS
RAPID CTY ARPT CLOUDY    36  31  82 NW26G38   29.79R
PIERRE         CLOUDY    36  27  69 S7        29.76R
CUSTER         CLOUDY    31  23  72 NW10      29.77R WCI  22
ELLSWORTH AFB  CLOUDY    35  32  87 NW22G29   29.79  WCI  24
PHILIP         CLOUDY    36  33  89 W9        29.77S
PINE RIDGE     CLOUDY    37  31  78 W9        29.81R
SPEARFISH      CLOUDY    34  28  80 NW18G25   29.83R WCI  23
WINNER         CLOUDY    44  23  43 SW9       29.76F
$$

SDZ004>011-016>023-039-040-252300-
NORTHEAST SOUTH DAKOTA

CITY           SKY/WX    TMP DP  RH WIND       PRES   REMARKS
ABERDEEN       LGT SNOW  32  27  81 SE10      29.82F WCI  24
WATERTOWN      CLOUDY    32  24  72 SE8       29.85R WCI  25
SISSETON         N/A     28  22  78 S12       29.88S WCI  18
$$

SDZ017-020-022-023-036>040-048>070-252300-
SOUTHEAST SOUTH DAKOTA

CITY           SKY/WX    TMP DP  RH WIND       PRES   REMARKS
SIOUX FALLS    CLOUDY    36  23  59 SE9       29.88F
HURON          CLOUDY    36  26  67 SE8       29.82S
CHAMBERLAIN    CLOUDY    39  25  58 S5        29.78S
MITCHELL       CLOUDY    39  27  62 SE10      29.83S
YANKTON        CLOUDY    43  27  52 S10       29.87S
$$

ABBREVIATIONS USED IN REMARKS
   TC - TEMPERATURE IN CELSIUS
  WCI - WIND CHILL INDEX
   HX - HEAT INDEX
  VSB - VISIBILITY



USA.gov is the U.S. government's official web portal to all federal, state and local government web resources and services.